Вернуться в каталог

STARLINK-3965

АктивенСвязьVLEO
NORAD 52550·PAYLOAD·🇺🇸 United States

Запущен May 13, 2022 с Vandenberg Space Force Base

Loading…

Ближайшие Пролёты (ближайшие 24 часа)

TLE

СвежийSource: CelesTrak SupGP

Эпоха: Sep 14, 2026, 21:20 UTC

1 52550C 22051T   26257.88937500 -.00032034  00000+0 -94665-3 0  2572
2 52550  53.1579 347.6033 0001164  79.0894 312.7588 15.34400323    14

Отслеживайте STARLINK-3965 в реальном времени с AllMySat

Download on the App Store